Theta_e
324 326 325 328 330 327 327 327 325 325 326 324 323 324 330 339 328 322 346 358 339 337 349 348 352 354 347 344 338 335 337 337 336 338 337 338 339 338 339 339 339 340 340 341 342 342 343 344 344 345 346 346 347 347 348 349 350 351 351 351 350 349 350 351 348 346 346 340 330 328 327 323 321 320 317 317 321 324 324 321 320 320 320 321 320 321 322
325 324 322 326 326 326 326 326 327 327 326 325 324 325 330 333 330 329 342 351 344 339 344 346 342 338 335 334 333 335 337 337 337 337 337 338 339 339 339 340 339 339 340 340 341 341 342 342 343 344 344 346 346 346 347 349 349 351 351 351 352 351 349 346 344 346 344 334 327 328 324 320 321 321 318 318 321 325 325 322 320 320 321 321 321 321 321
324 323 324 325 322 324 324 322 326 326 323 326 323 323 331 331 329 334 339 343 343 339 342 343 332 328 332 334 334 335 337 337 337 337 338 338 339 339 340 340 340 340 340 340 340 340 341 340 341 342 343 344 345 346 347 347 349 350 350 352 352 349 346 345 346 347 343 333 328 327 322 321 324 322 318 318 322 326 326 322 320 320 321 321 321 321 321
322 323 324 324 322 323 321 319 324 324 322 325 323 325 335 334 331 336 336 335 338 340 342 339 332 333 338 337 334 334 335 338 338 338 338 339 338 339 339 340 340 340 339 339 339 338 339 340 340 340 342 343 344 345 345 346 348 350 351 352 351 349 348 348 348 347 342 333 329 328 324 322 325 323 319 319 323 326 325 322 320 320 321 322 321 321 321
324 325 322 324 322 318 319 322 323 322 324 327 325 326 334 336 335 336 332 331 336 341 342 340 339 342 342 337 333 334 335 338 338 338 339 338 339 340 340 340 340 339 338 337 337 338 338 339 339 339 341 342 343 343 344 346 348 351 352 352 351 350 349 348 346 345 342 334 329 328 325 325 328 325 320 320 324 327 324 322 321 320 321 322 321 321 322
327 330 325 324 320 317 326 338 333 325 325 325 325 329 336 341 343 342 340 340 343 342 340 341 343 341 338 335 334 334 336 337 338 339 339 339 340 340 340 340 339 339 338 338 338 338 338 338 338 339 341 342 342 344 345 347 349 351 351 351 351 350 349 347 345 345 343 336 331 327 325 326 327 325 321 321 325 327 325 322 321 320 321 321 321 322 322
329 330 324 320 321 327 340 346 337 331 326 324 331 338 342 344 345 347 350 349 347 345 339 335 335 333 331 332 333 334 336 336 338 339 339 340 340 339 340 339 339 339 338 337 337 337 337 338 339 341 342 342 344 346 347 349 350 351 351 351 351 350 349 348 346 345 344 341 338 332 325 325 327 327 326 324 326 329 326 321 320 321 321 321 322 322 322
325 324 321 321 329 340 343 339 337 338 333 331 336 337 336 339 341 347 356 356 353 348 336 328 329 330 330 332 332 333 335 336 337 339 339 339 339 338 338 339 338 338 337 337 338 338 339 340 341 342 343 344 346 347 349 350 351 352 351 351 351 350 349 349 348 347 345 344 343 336 327 326 328 328 327 328 329 330 326 321 320 321 320 321 322 322 323
331 330 326 328 333 335 337 339 339 337 334 334 338 338 335 336 336 340 352 357 351 344 334 328 329 332 333 335 335 333 334 336 337 338 337 337 337 338 338 339 339 339 338 338 338 337 337 336 336 338 341 344 347 348 349 351 352 352 352 351 351 351 351 351 349 349 347 345 343 337 329 328 330 328 329 332 331 329 326 322 321 321 322 323 324 326 327
338 336 329 330 330 329 340 348 339 333 333 332 335 338 335 335 335 334 341 347 346 342 338 332 331 333 339 343 340 335 334 335 336 338 338 338 339 338 338 338 338 337 336 335 334 333 333 333 333 334 336 341 346 348 349 351 352 352 352 352 352 352 352 351 349 348 346 344 342 336 330 330 333 331 331 333 331 329 328 326 323 324 326 327 329 331 331
335 334 332 337 336 334 344 350 339 333 332 331 333 334 332 335 336 331 334 340 340 337 335 333 334 337 342 345 340 334 334 336 336 337 338 338 338 337 337 336 334 334 333 334 333 334 334 334 334 333 334 338 342 346 348 350 351 352 352 352 352 352 352 351 350 348 346 344 343 337 332 331 334 333 332 332 331 331 332 330 327 327 329 330 332 333 333
339 339 339 340 339 337 340 341 336 333 331 331 332 331 333 338 335 329 330 335 334 331 330 333 340 342 341 341 336 333 334 336 334 335 335 334 336 335 333 333 333 333 334 334 335 336 335 335 335 333 334 336 339 343 347 349 350 350 350 351 351 352 351 350 350 348 346 345 343 338 332 332 334 334 332 332 332 332 333 333 331 331 332 333 335 335 335
344 341 338 336 338 340 338 335 333 330 330 329 329 331 335 336 331 330 331 331 331 330 331 336 342 341 337 337 335 333 335 335 334 335 334 334 335 334 332 334 334 334 335 334 334 336 337 337 335 333 334 335 337 342 345 347 348 349 350 350 350 351 350 349 349 348 345 345 343 338 333 333 335 335 333 332 333 334 334 334 334 335 336 337 337 338 339
340 339 337 334 337 337 332 330 330 330 332 335 334 334 335 331 330 333 334 332 334 336 336 338 342 342 341 341 336 334 334 334 333 334 333 333 334 333 333 335 334 334 335 335 336 338 338 338 336 334 334 335 337 341 342 344 347 348 349 350 349 349 349 348 348 346 344 344 344 340 336 334 335 335 333 332 333 335 336 336 337 338 339 339 339 340 340
338 339 336 331 334 335 329 331 337 339 340 340 335 333 333 333 333 335 335 336 337 338 339 340 342 343 343 341 338 337 337 336 336 336 336 336 337 336 338 338 337 336 338 339 341 341 340 338 337 335 335 337 338 340 341 344 348 349 349 348 348 348 347 347 346 344 342 344 343 340 338 338 338 337 334 332 334 336 338 338 339 339 339 339 339 338 337
340 342 339 331 333 333 329 331 338 338 336 335 334 334 335 335 336 335 335 337 336 334 337 338 338 339 338 337 337 339 340 340 340 339 340 340 340 338 339 339 337 336 337 339 342 342 338 337 337 337 339 341 342 343 345 348 349 349 349 348 347 346 346 346 345 343 341 341 340 339 339 339 339 338 335 333 335 338 339 339 339 338 338 337 336 335 333
337 339 340 334 332 331 329 330 331 331 333 334 335 336 337 337 337 336 336 335 332 330 331 331 331 333 333 333 335 336 337 338 337 336 337 338 338 337 336 337 338 337 337 340 342 342 339 339 340 342 343 344 345 346 348 350 350 350 348 347 345 344 344 343 343 341 340 339 339 339 340 339 338 336 334 335 338 340 339 337 335 334 334 334 332 331 330
337 335 335 332 330 329 329 330 329 330 334 336 335 336 336 336 336 334 334 334 332 329 329 328 328 327 327 328 329 329 329 330 329 330 333 334 336 337 337 338 339 339 339 340 341 342 341 342 344 345 345 345 345 346 349 350 349 348 346 345 343 342 341 341 341 340 339 338 338 339 339 338 336 335 336 339 340 337 333 330 328 327 328 329 329 329 329
344 343 338 333 331 330 329 328 329 329 332 333 334 335 335 334 334 333 332 333 331 330 330 329 329 328 327 327 326 326 325 326 326 328 329 329 331 334 337 339 341 340 341 342 341 342 344 345 346 346 346 346 346 348 350 349 346 345 343 341 340 339 340 339 338 338 337 336 336 336 336 335 335 337 340 342 339 331 324 322 323 323 325 326 328 329 328
346 346 338 332 330 329 328 328 327 328 329 330 331 332 332 332 332 332 332 331 331 331 331 330 330 330 328 327 328 327 326 326 325 325 326 327 327 328 330 334 338 341 344 344 343 344 346 348 348 348 347 347 348 350 349 346 343 342 341 339 338 337 338 337 336 336 335 334 332 332 332 334 337 340 342 339 332 324 320 320 321 323 325 327 328 329 328
339 336 333 332 333 332 330 328 328 327 327 328 328 328 329 329 329 329 329 329 330 330 330 329 329 327 326 326 328 328 327 328 328 327 327 328 327 326 327 328 331 336 340 341 343 347 349 350 350 349 348 347 347 348 346 343 341 340 339 338 336 336 336 336 335 334 333 332 331 332 335 340 342 342 341 337 328 323 322 322 323 324 325 327 328 328 328
337 335 334 333 336 336 333 329 327 326 325 325 326 326 326 326 326 326 326 327 327 327 327 327 326 326 327 330 332 332 333 333 332 331 330 329 328 328 329 329 331 335 338 340 344 347 349 350 349 348 346 344 345 345 344 342 340 339 338 337 335 335 336 336 335 336 336 337 338 339 339 340 338 334 332 329 325 323 323 324 324 325 325 327 327 328 328
333 332 331 330 331 332 329 326 326 325 323 323 324 323 323 323 324 325 325 325 326 327 327 326 327 327 329 332 334 334 334 333 333 331 330 329 329 328 327 327 331 336 338 339 341 344 346 347 347 346 344 342 344 344 342 340 339 338 338 337 336 336 335 332 332 334 334 335 337 335 330 328 326 322 320 322 323 325 325 325 325 325 326 327 327 327 327
326 324 325 325 324 323 323 323 324 323 321 322 322 321 322 322 322 323 324 324 325 326 327 327 328 329 330 332 334 334 334 335 335 333 332 330 329 329 328 330 333 337 338 339 339 340 342 344 344 344 342 342 343 342 340 337 335 334 335 335 334 333 330 325 324 326 325 324 326 325 322 322 322 321 321 323 326 327 327 325 325 325 325 326 327 327 327
323 321 321 321 320 320 321 321 321 321 321 321 321 321 321 321 321 322 322 322 323 324 325 326 327 328 330 331 332 334 336 337 337 336 334 333 332 332 332 333 336 337 338 338 338 338 339 341 342 342 341 341 342 340 337 334 331 330 330 330 329 330 328 324 323 324 323 323 324 325 325 327 328 328 327 328 328 328 326 325 324 325 325 325 326 326 326
323 323 323 322 321 321 321 321 320 320 320 320 320 321 320 320 320 321 321 321 322 322 323 323 324 325 327 328 330 332 334 334 336 336 335 334 334 335 335 336 336 337 337 337 337 338 339 341 342 341 340 340 339 336 333 330 329 329 328 327 327 328 327 325 324 324 323 325 331 334 334 333 333 332 330 328 327 326 324 324 324 325 325 326 326 326 326
325 325 325 325 324 323 323 323 322 321 321 321 321 321 321 320 320 320 320 320 320 320 321 321 321 322 324 324 325 327 328 329 331 332 332 333 334 335 335 336 336 336 336 337 337 338 339 340 340 339 339 338 336 331 327 325 325 325 325 325 325 325 324 324 324 323 325 330 337 339 337 333 330 329 327 326 326 325 325 326 326 326 326 326 326 326 326
326 325 325 324 323 321 322 323 322 322 321 321 321 321 321 320 320 320 320 320 319 319 319 319 320 320 321 321 322 323 324 324 326 326 327 329 331 332 334 335 336 337 337 337 336 338 339 340 339 338 336 334 331 328 325 323 322 322 323 324 324 323 323 324 324 324 328 333 335 334 331 329 327 327 327 327 327 327 327 326 326 327 327 327 327 326 325
322 322 322 321 321 320 320 321 321 321 320 321 320 320 320 320 320 320 320 320 320 320 320 319 319 318 318 319 319 320 321 321 322 322 323 323 325 328 331 332 334 335 337 337 338 338 339 339 338 336 332 329 327 326 325 324 324 324 325 325 324 323 324 324 324 326 328 329 328 326 325 326 326 327 328 328 327 327 327 326 326 327 327 327 326 325 323
319 318 319 319 319 319 318 316 315 316 317 318 318 318 318 319 320 320 321 320 320 320 320 320 320 319 318 318 318 318 319 319 319 320 320 321 322 324 326 329 332 334 335 337 338 338 338 338 338 334 329 328 327 326 326 326 325 325 325 325 325 325 325 324 324 325 325 323 321 322 324 324 325 326 326 327 326 326 325 325 325 325 325 325 324 323 321
316 316 316 317 316 316 316 315 315 316 317 317 317 318 318 319 319 320 320 320 320 320 320 320 320 320 319 319 319 319 318 318 317 318 318 319 320 320 322 325 329 331 334 337 337 337 338 338 336 334 331 329 328 327 326 325 324 325 327 327 326 326 326 326 325 324 323 321 321 322 323 324 324 324 324 324 324 324 323 323 323 323 323 323 322 321 320
317 317 317 317 317 317 317 318 318 319 319 319 319 319 320 320 320 320 321 320 320 320 320 319 319 319 319 319 319 319 318 317 317 317 317 317 318 319 319 321 323 327 332 335 336 337 337 335 334 332 331 330 328 327 326 326 326 328 329 329 328 327 327 327 327 325 323 323 322 322 323 324 323 323 323 323 323 323 322 322 322 322 322 322 321 321 320
319 320 320 319 319 319 320 320 320 320 321 321 321 321 321 321 321 321 321 321 321 321 320 320 320 320 320 319 319 318 318 317 317 318 318 318 317 318 318 319 320 322 325 330 333 335 336 335 333 331 330 330 330 328 327 328 329 330 330 330 329 328 328 328 327 326 324 323 322 323 324 323 322 322 322 322 322 322 322 322 322 322 321 321 321 320 319
320 320 321 321 320 320 320 320 321 321 321 321 321 321 321 321 321 321 321 321 320 320 320 320 320 319 319 319 319 319 319 318 318 319 319 319 319 319 319 319 319 319 321 323 326 329 333 335 334 333 332 331 331 330 329 330 331 331 330 330 329 328 327 326 326 325 324 323 324 324 324 323 322 322 322 322 322 322 322 322 321 321 320 320 319 318 318
321 321 321 321 321 321 321 321 321 322 322 322 322 321 321 321 321 320 320 320 320 320 320 319 319 319 319 319 318 318 318 318 318 318 318 318 319 320 320 320 320 320 321 322 325 328 331 333 334 333 332 331 331 331 330 330 331 331 330 329 328 327 326 325 325 324 324 324 324 323 322 321 321 322 322 321 321 321 321 321 320 320 320 319 318 316 316
321 321 321 321 321 321 322 322 322 322 322 321 321 321 321 320 320 320 320 320 320 320 320 319 320 320 320 321 321 320 320 320 320 320 319 319 320 320 319 320 321 322 323 325 327 329 331 333 332 332 332 332 331 330 329 329 329 330 328 327 325 324 324 324 324 323 323 323 322 321 321 322 322 321 321 320 320 320 320 320 320 319 319 318 317 316 316
320 320 320 321 321 322 322 321 322 321 321 321 321 320 320 320 320 319 320 320 320 320 320 321 321 322 322 323 323 323 323 324 324 323 323 323 323 322 322 323 324 325 327 328 329 329 331 332 331 331 330 330 329 328 328 328 329 327 326 324 323 323 323 323 322 322 321 320 320 320 321 321 320 320 319 319 319 319 319 318 318 318 317 317 317 316 316
320 320 320 320 320 321 321 321 321 321 320 320 320 319 319 319 319 319 319 319 319 320 321 322 322 322 322 323 323 323 323 324 325 325 325 326 326 325 325 326 328 328 329 329 330 330 331 331 329 328 327 326 326 327 328 328 327 325 324 323 323 323 322 321 320 320 319 319 318 318 318 318 318 317 316 316 316 316 315 314 314 314 314 315 315 315 314
319 319 319 318 318 319 319 319 319 320 319 319 319 318 318 318 318 318 318 318 319 320 321 322 322 321 321 321 322 322 323 323 324 325 326 326 326 326 326 327 328 329 329 328 328 327 327 328 327 325 325 325 326 326 326 325 324 323 323 322 322 321 320 320 319 319 317 317 317 317 316 314 313 313 313 313 312 312 311 311 310 310 311 311 312 312 312
317 317 317 317 317 318 318 318 318 318 318 318 318 317 317 317 317 317 317 318 319 320 321 321 321 320 320 320 321 321 322 322 322 322 323 324 324 325 325 326 326 326 327 326 325 325 325 325 325 324 324 324 324 323 322 321 321 321 321 321 320 320 319 318 317 316 315 315 315 314 313 312 312 312 312 312 311 311 311 311 311 310 310 310 311 311 311
316 316 316 317 317 317 317 317 317 317 317 317 317 317 316 316 316 316 317 318 319 320 320 320 320 319 319 320 320 321 321 321 321 321 321 321 322 323 324 324 323 324 325 324 324 324 325 324 323 323 322 322 321 321 320 319 319 319 319 320 320 319 318 317 315 314 314 314 314 313 313 313 314 314 314 313 313 313 313 313 312 312 311 311 310 310 310
316 316 316 316 316 316 316 316 316 316 316 316 316 316 315 316 316 316 316 317 318 320 320 320 319 319 319 319 319 320 321 321 321 321 321 321 322 322 322 322 322 323 324 324 324 324 324 323 322 322 321 320 319 319 318 318 318 319 320 320 319 319 317 316 314 314 315 314 314 314 314 314 314 314 314 314 314 314 315 315 315 314 314 313 312 311 311
316 316 315 315 315 316 316 316 316 316 316 316 316 316 316 316 317 317 316 316 317 319 319 319 319 318 318 318 317 318 319 319 320 321 321 321 322 322 322 322 322 322 323 323 323 322 322 321 321 320 319 318 318 317 317 317 318 319 320 320 319 318 317 316 315 315 315 315 314 314 313 313 313 313 313 313 313 313 314 314 314 314 314 313 313 312 312
316 315 315 315 315 316 315 315 314 315 315 316 317 317 317 317 317 317 317 317 317 317 318 319 319 319 319 318 318 317 317 317 318 319 319 320 321 322 322 322 322 322 322 322 321 321 320 320 320 319 319 318 317 316 315 316 317 319 320 319 318 317 317 316 315 315 314 314 313 311 310 310 310 310 309 310 310 310 310 310 310 310 310 310 310 310 311
316 315 315 315 315 314 314 313 312 312 313 314 316 317 317 318 318 317 317 317 317 317 318 318 318 318 318 319 318 318 318 317 317 317 317 318 320 320 321 321 321 321 321 321 320 320 320 320 320 319 319 318 317 316 315 315 315 315 315 316 317 317 317 316 316 315 315 314 312 309 308 308 308 308 308 308 308 308 308 308 308 307 307 307 308 308 308
316 315 315 315 314 314 313 312 312 312 312 312 313 314 315 316 317 316 315 314 314 314 315 317 318 318 318 318 318 319 319 318 318 318 318 318 319 319 320 320 321 321 321 321 320 320 320 319 319 319 319 318 317 316 316 315 313 311 310 311 312 313 314 315 315 315 314 312 310 309 309 309 309 309 309 309 308 308 307 307 307 307 307 307 307 307 307
316 315 315 315 315 314 314 313 313 312 312 311 312 312 313 314 315 315 314 314 313 313 313 314 316 316 317 317 318 318 319 319 319 319 319 319 319 319 319 319 320 320 321 320 320 319 319 319 319 319 319 319 318 317 316 314 312 312 312 311 309 308 310 311 311 311 310 310 310 310 310 310 310 310 309 309 309 308 308 307 307 306 306 306 306 306 307
316 316 315 315 315 315 315 314 314 313 312 312 312 312 312 313 313 313 313 313 314 313 312 312 312 313 313 314 314 316 317 318 319 319 319 319 319 319 319 319 319 320 320 320 320 320 319 319 319 319 318 318 318 317 316 315 314 314 314 313 311 310 310 310 310 310 310 310 310 311 311 310 310 310 309 309 308 307 306 306 306 305 305 305 305 306 306
315 315 315 315 315 315 315 314 314 313 313 312 312 312 312 312 312 312 312 312 312 312 312 311 311 311 311 311 311 311 313 315 317 318 318 319 319 319 319 319 319 319 319 320 320 320 319 319 319 319 319 318 318 317 317 317 316 315 315 314 312 311 311 311 311 311 310 310 311 311 311 311 310 310 309 308 306 305 304 304 304 304 304 304 305 305 305
314 314 315 314 314 313 313 313 313 313 313 312 312 312 312 312 312 312 312 312 312 312 311 311 311 311 311 311 310 310 310 311 313 315 316 317 318 318 319 319 319 319 319 319 319 319 319 319 318 318 318 318 318 317 317 317 317 317 316 314 312 311 311 311 311 311 311 311 311 311 311 311 310 309 308 307 305 303 303 303 303 303 304 304 304 304 305
314 314 314 314 313 312 312 312 312 312 312 313 312 312 312 312 312 312 312 312 312 312 312 311 311 311 311 311 311 311 311 310 310 311 312 313 313 315 316 317 317 318 318 318 318 319 319 318 317 316 317 317 317 317 317 317 317 316 316 314 312 311 311 311 311 311 311 311 311 311 311 311 310 308 307 306 305 303 303 303 303 303 303 303 303 303 304
314 314 314 314 313 312 312 312 312 312 312 312 312 312 312 312 312 312 311 311 311 311 311 311 311 311 311 311 312 311 311 311 311 310 310 310 310 310 311 311 312 313 314 315 316 317 318 318 318 317 317 317 316 316 316 315 315 315 314 314 313 312 311 311 311 312 312 312 312 311 311 310 309 308 307 306 305 304 303 303 303 303 302 303 303 303 303
Wind_Speed
15 14 12 9 8 7 8 9 10 10 9 11 12 11 10 10 8 10 9 9 10 10 10 11 12 11 12 13 18 22 23 23 24 24 26 28 31 32 33 34 35 35 35 35 36 36 36 37 38 39 40 42 44 45 46 46 47 48 48 49 51 51 52 48 40 35 33 29 25 26 27 27 25 23 22 22 18 13 11 13 17 18 17 17 19 19 19
14 14 12 9 9 8 7 8 9 9 9 12 13 12 10 10 10 10 8 12 13 10 11 13 14 14 14 13 15 19 19 22 25 26 29 32 34 35 36 36 35 34 33 33 33 33 33 34 35 36 38 40 41 43 44 44 45 46 47 48 48 45 39 33 30 31 31 29 28 29 29 29 27 24 24 24 21 15 13 14 18 20 20 20 21 21 21
10 11 12 10 10 10 11 13 12 9 8 8 9 8 5 5 8 7 4 8 10 9 8 9 8 8 9 8 11 17 20 22 24 26 30 35 36 36 36 35 34 32 32 31 31 31 30 30 31 33 35 36 38 40 41 43 43 45 46 44 41 38 33 32 36 37 34 32 32 34 33 31 30 27 26 27 24 17 15 18 22 23 22 23 22 22 21
6 7 9 11 9 8 10 13 13 10 7 6 7 6 6 7 7 6 4 5 9 9 6 4 4 8 10 9 12 17 20 23 26 30 34 35 34 34 34 34 33 32 31 29 28 26 26 27 28 29 30 33 35 36 37 39 41 42 42 39 39 40 41 41 43 41 39 36 34 35 36 34 31 29 28 29 26 19 18 22 26 25 24 24 24 23 22
6 7 8 8 5 4 6 9 11 11 9 7 5 4 6 9 8 7 7 8 9 6 6 6 5 7 8 10 16 21 23 27 30 33 34 32 32 34 34 33 32 32 30 27 24 23 23 24 24 24 27 29 30 30 32 35 37 39 38 38 40 42 41 40 40 39 39 36 31 32 38 36 30 29 31 30 27 22 22 25 27 27 27 26 25 24 23
6 7 3 4 4 5 7 6 8 11 11 12 10 7 7 8 5 4 6 7 5 3 8 11 11 12 15 20 27 28 28 31 31 30 30 31 32 33 32 31 31 30 27 24 23 23 23 22 22 23 25 26 26 28 31 33 35 36 36 37 39 40 38 38 38 35 34 35 32 34 39 36 31 32 34 33 28 25 25 27 29 30 29 28 28 26 24
4 3 4 4 6 8 7 4 3 7 11 14 11 4 3 5 5 6 7 8 7 6 8 12 14 14 13 15 19 21 24 29 31 30 29 30 31 31 30 29 28 26 24 23 22 22 21 21 21 23 24 24 25 28 30 32 33 33 34 36 37 38 37 38 39 35 32 35 36 36 40 39 35 34 35 34 30 28 28 30 31 31 30 30 28 27 25
2 1 3 5 7 5 4 2 2 2 3 7 8 3 2 4 5 6 7 8 8 7 8 8 9 11 7 4 7 12 16 21 26 27 28 27 28 27 25 23 23 23 22 21 20 18 16 15 15 16 17 19 22 25 28 30 31 31 33 35 36 37 38 39 40 36 32 33 34 36 42 42 38 36 35 32 30 29 30 32 32 31 31 30 28 26 25
2 1 2 4 2 2 2 2 2 3 3 5 7 4 4 5 3 5 6 6 6 5 5 5 11 13 10 6 3 7 12 18 23 25 25 25 25 23 20 18 18 18 17 14 10 7 5 4 6 7 9 12 16 21 25 28 30 31 32 34 36 37 38 39 41 36 31 30 30 34 40 41 38 35 31 27 28 29 30 32 33 32 31 29 27 25 25
2 3 0 1 0 2 5 4 3 2 2 4 6 5 3 3 2 1 4 5 5 4 4 10 16 14 8 2 1 2 7 14 17 17 18 19 17 16 15 14 11 9 8 7 6 4 3 2 4 6 7 9 12 16 20 23 27 30 32 34 36 36 37 39 39 33 28 27 28 32 37 40 38 34 29 27 28 29 29 31 33 32 31 29 26 25 25
1 4 3 3 4 4 5 6 4 1 1 3 5 5 3 3 6 5 2 5 4 3 4 8 12 10 5 5 2 3 6 9 9 10 12 13 12 11 11 10 9 9 8 8 7 5 3 2 4 6 9 11 12 13 16 19 24 27 30 32 33 33 36 38 36 31 28 28 30 32 36 41 41 35 28 25 26 26 26 28 31 31 30 27 26 26 26
1 2 2 3 3 2 3 4 6 9 7 1 6 5 3 4 6 5 3 4 6 10 10 7 5 4 5 6 4 9 12 11 11 12 13 14 14 13 13 13 12 9 7 6 5 4 2 1 3 6 9 10 11 12 14 17 20 23 25 28 29 31 35 36 33 31 28 28 30 31 34 39 39 32 23 19 19 20 21 23 25 26 25 24 24 24 24
2 1 1 2 3 3 3 7 12 13 6 4 5 5 5 6 5 9 11 5 9 18 16 10 6 5 9 13 14 16 16 14 13 13 13 13 14 14 14 13 10 7 5 4 4 5 5 4 3 5 7 7 8 9 12 14 16 19 21 25 27 30 33 33 32 31 28 27 30 31 33 36 33 27 21 17 16 17 19 19 19 19 19 20 21 22 22
2 2 2 2 2 1 7 16 18 9 3 3 4 4 2 4 4 16 20 14 17 25 25 21 18 17 20 23 23 21 19 17 16 15 14 15 14 12 10 9 8 6 3 2 3 4 5 5 4 4 5 5 5 6 9 11 13 16 19 22 25 28 29 31 32 30 26 27 30 31 35 38 34 27 23 20 18 18 18 15 14 15 17 18 20 21 22
1 1 2 0 3 3 15 19 12 4 3 6 7 6 5 5 11 20 22 19 22 28 29 28 28 27 28 29 28 26 24 21 19 17 15 14 12 10 9 9 7 5 3 2 2 3 4 4 3 3 3 4 4 5 7 10 12 16 18 19 22 25 27 30 31 28 24 25 27 29 31 35 34 31 28 24 22 19 15 13 14 16 17 18 19 21 21
1 1 3 1 5 7 17 14 4 4 4 9 14 13 10 12 18 24 25 24 27 32 32 32 33 32 31 29 28 28 27 24 22 20 17 16 14 11 10 8 6 4 4 4 5 4 3 2 3 3 3 4 5 6 8 10 12 15 17 17 20 22 25 27 28 26 22 19 21 24 28 30 31 32 31 28 23 17 13 13 15 16 17 18 19 21 21
3 4 5 5 4 5 14 13 9 10 12 14 16 17 18 18 20 25 27 26 29 34 35 35 35 33 30 28 27 26 26 23 21 19 17 15 13 10 8 6 5 3 3 5 5 4 3 4 5 5 5 4 5 7 8 9 11 13 15 16 18 20 22 23 24 23 20 17 17 22 27 29 29 30 29 26 19 13 12 15 16 17 18 19 20 21 21
4 3 3 5 3 7 13 13 11 14 19 18 19 23 25 23 23 26 27 25 27 29 31 32 33 29 27 27 26 24 23 21 19 16 13 11 10 7 5 4 3 3 3 4 5 5 6 7 7 7 6 6 6 8 8 9 10 12 14 14 15 16 17 19 20 20 18 16 17 21 26 28 27 24 22 17 13 13 15 17 18 19 19 19 20 20 20
4 2 2 6 6 6 10 12 13 17 20 21 23 26 26 24 26 28 26 25 24 25 26 28 29 27 26 26 25 23 22 20 17 15 13 11 9 7 5 4 3 3 3 4 4 5 6 7 7 7 7 7 8 8 9 9 10 11 11 12 12 13 15 17 17 17 16 16 17 20 24 24 20 16 13 12 13 16 18 18 19 19 19 18 18 19 19
1 5 6 4 4 5 10 13 14 16 18 20 21 23 24 24 26 26 24 24 23 23 23 24 24 23 22 20 18 17 16 15 13 12 10 8 7 7 6 5 5 6 7 7 6 6 6 6 6 7 8 8 8 8 8 8 7 8 10 10 11 12 15 15 13 14 16 17 18 19 19 16 13 11 11 12 15 17 19 19 19 18 17 18 18 19 20
1 6 9 8 3 3 7 12 14 13 15 19 20 20 21 22 23 23 23 23 22 21 20 19 18 19 17 14 13 13 12 12 13 12 11 9 7 7 6 4 4 6 7 7 7 7 7 7 7 8 7 7 7 7 7 6 6 7 9 11 12 13 14 14 14 16 18 17 17 16 13 11 10 11 12 13 16 18 19 18 17 16 17 18 18 20 21
3 3 5 6 4 3 3 9 14 13 14 19 20 20 20 21 21 21 21 21 19 18 16 15 14 15 15 14 14 13 11 11 12 11 11 10 9 7 6 5 4 5 6 6 7 7 7 8 8 7 6 6 7 7 7 7 7 8 10 12 14 14 14 14 14 14 12 10 9 8 7 6 8 11 13 15 17 18 16 15 15 16 17 18 19 20 19
1 2 3 4 5 7 7 11 14 14 15 19 21 21 23 23 21 21 21 21 20 19 18 15 13 11 11 11 11 10 10 9 8 8 8 8 8 7 7 5 4 5 5 5 6 7 8 8 8 7 6 7 7 8 8 9 9 11 13 14 14 14 14 13 12 9 6 5 5 7 9 11 13 15 17 18 17 16 15 15 15 16 17 18 18 17 16
5 9 15 15 15 17 17 17 17 17 19 22 23 23 25 25 24 24 24 24 23 22 21 19 16 13 11 9 9 9 7 6 5 5 5 6 6 6 5 3 2 2 2 3 5 5 6 7 7 7 7 8 9 11 12 12 12 13 15 16 18 18 16 13 10 8 8 10 11 14 16 16 17 18 19 19 17 15 15 15 15 15 16 17 16 15 14
11 14 22 28 29 29 27 26 25 24 24 25 25 24 24 25 24 23 24 24 23 21 21 20 19 16 13 11 10 8 6 5 4 4 3 2 2 3 3 3 2 1 1 2 3 4 5 6 6 7 8 9 11 14 15 15 15 15 17 19 20 19 17 14 11 11 12 13 15 17 16 15 16 18 19 18 16 15 15 15 14 14 14 14 14 14 14
22 17 20 27 30 27 26 27 27 26 25 25 25 24 23 21 20 20 21 21 19 18 18 18 17 16 15 14 13 10 8 7 6 4 3 2 3 4 5 4 3 3 2 2 3 4 5 6 8 9 10 11 14 15 15 15 15 15 16 17 17 16 17 18 16 14 13 14 16 17 17 16 17 17 16 15 15 14 14 13 12 12 12 13 14 15 14
17 11 11 17 21 20 18 18 17 17 17 17 17 17 16 15 15 16 17 17 16 16 15 15 14 14 13 13 12 11 10 9 7 6 5 4 4 5 6 6 5 4 4 3 3 4 5 7 9 11 12 14 16 17 16 14 13 13 12 11 12 14 17 16 13 12 12 14 16 17 17 17 16 15 14 14 13 12 12 11 11 12 13 14 15 15 15
7 7 8 11 15 17 17 16 14 14 15 14 13 13 11 9 10 12 13 15 14 12 12 12 12 11 12 12 11 9 9 8 8 7 7 7 6 6 6 6 6 5 5 4 5 5 7 10 12 14 16 17 19 19 16 13 12 11 9 8 10 15 17 15 13 11 11 13 14 15 15 14 13 12 12 11 11 11 11 11 12 13 14 15 16 16 15
11 13 14 17 19 20 20 18 16 16 16 14 13 11 9 8 10 12 14 14 13 11 12 13 12 11 12 12 10 10 10 9 8 8 8 8 7 6 6 6 6 6 5 6 7 7 10 14 17 18 19 20 19 19 17 14 12 11 12 13 14 17 17 15 12 10 11 11 11 11 11 10 10 10 10 10 11 11 12 13 14 14 15 16 16 15 14
18 19 20 20 20 19 17 16 14 13 12 9 8 8 8 8 11 14 14 13 13 12 13 13 12 12 12 12 11 12 11 10 10 9 8 7 8 7 6 6 6 6 6 7 8 10 13 18 21 23 24 22 19 17 17 16 15 14 15 16 16 16 14 12 11 11 9 8 8 9 9 9 10 10 11 11 11 11 12 14 15 15 15 15 14 12 10
18 18 17 17 17 17 16 14 12 11 9 8 8 9 9 10 12 14 13 13 13 13 14 13 13 12 12 12 11 12 11 11 10 10 9 9 8 8 8 7 5 4 5 6 8 12 17 21 24 27 26 24 20 17 16 16 15 14 15 14 13 13 12 12 10 9 8 7 8 8 9 9 10 10 11 11 11 11 12 14 14 14 14 13 11 9 7
18 18 16 15 15 16 15 13 12 11 10 9 10 11 12 12 12 12 12 12 13 13 13 13 13 13 13 13 12 12 11 11 10 10 10 10 9 9 9 8 7 5 4 4 7 12 18 23 26 27 25 23 21 20 18 17 14 13 13 13 14 14 13 11 9 8 8 8 8 8 8 8 8 8 9 10 11 12 12 13 12 12 11 9 8 7 7
15 16 15 14 14 15 15 13 12 12 11 10 11 11 10 10 10 10 10 10 11 11 12 12 12 12 13 13 13 12 12 11 10 9 9 10 9 9 10 10 9 8 6 5 6 9 13 18 21 21 21 21 21 20 19 17 14 12 13 15 15 14 12 10 9 8 8 7 7 7 7 6 6 8 9 10 11 11 11 11 9 8 7 7 6 6 6
15 16 15 13 13 13 13 12 11 10 9 10 9 8 8 8 8 9 9 9 10 11 11 12 12 12 13 12 12 11 10 9 8 8 9 9 8 9 9 10 11 11 10 8 7 7 9 12 15 16 17 18 18 17 16 15 14 14 15 15 14 13 11 9 8 8 7 7 7 7 6 7 8 9 9 9 9 9 9 8 7 6 6 6 5 5 6
16 16 14 13 13 12 12 11 11 10 9 9 8 8 7 7 7 8 8 8 9 10 10 11 11 11 11 11 10 9 8 8 8 9 9 9 9 9 9 10 11 12 12 10 9 9 11 13 14 14 14 14 15 15 16 16 16 17 17 15 12 11 9 7 7 7 6 6 7 7 7 8 8 8 8 8 8 8 7 6 6 5 5 5 4 3 5
12 12 12 12 12 11 11 11 10 9 9 9 8 7 7 7 7 8 8 8 8 9 9 10 10 10 9 9 9 8 8 8 8 8 8 8 9 8 8 9 10 11 12 11 10 11 12 12 12 12 13 15 17 17 15 14 14 15 14 11 9 8 7 7 7 6 6 7 7 7 8 8 7 7 8 8 7 7 6 5 5 4 4 3 3 2 3
12 12 12 11 10 9 9 9 9 8 9 9 8 7 8 8 8 9 8 8 9 9 10 10 10 10 10 10 9 9 8 8 8 7 5 5 5 5 5 5 7 9 10 10 9 10 10 10 12 16 18 18 16 14 12 11 11 10 8 6 6 6 6 6 6 6 7 7 7 7 7 6 6 6 7 6 6 6 5 4 3 3 2 3 2 2 2
13 13 12 11 9 9 8 8 7 7 8 9 9 9 9 10 10 10 10 10 10 10 11 11 11 11 11 11 11 10 10 10 10 9 7 6 6 5 4 5 6 7 7 6 6 8 9 11 14 15 14 12 11 10 10 9 8 6 5 6 6 6 6 6 6 6 7 7 6 6 5 5 6 7 6 6 6 5 4 3 3 2 3 3 3 3 3
14 14 13 12 11 10 9 8 8 9 10 10 10 10 11 11 11 11 11 11 11 11 11 11 12 12 13 13 14 14 14 14 14 13 11 10 9 8 7 6 5 5 5 4 3 5 9 11 11 8 7 7 9 9 8 6 6 5 5 5 5 5 5 5 6 7 7 7 7 7 7 6 6 6 5 5 5 4 3 2 1 1 2 3 3 4 4
16 15 14 14 13 12 11 11 10 11 11 10 10 11 11 12 12 12 11 11 11 11 11 12 13 14 15 15 15 15 16 16 16 15 13 11 10 9 7 6 5 4 4 4 4 6 8 8 7 6 6 6 6 5 3 3 4 4 5 5 5 4 5 7 9 9 8 8 8 8 7 6 6 5 4 3 3 2 1 2 2 3 4 4 4 5 5
17 17 16 15 15 14 14 12 11 11 11 11 11 11 12 12 13 13 13 12 12 12 12 13 13 14 15 15 15 14 14 14 14 14 12 11 10 8 7 6 5 4 1 2 4 6 7 7 7 7 5 3 2 2 3 4 5 5 5 5 5 7 9 11 11 10 9 8 8 7 5 4 3 3 2 2 2 3 4 5 6 7 7 7 7 8 8
17 17 17 16 16 15 14 13 12 11 11 11 11 11 11 12 12 12 12 12 11 11 11 11 12 12 12 12 12 12 12 12 12 11 10 10 10 9 8 6 5 5 4 4 6 7 7 6 5 5 3 1 3 4 4 4 4 5 5 6 7 9 11 11 11 10 9 7 6 5 4 4 4 5 5 6 7 8 8 9 10 11 11 11 12 12 12
16 16 16 16 15 14 13 13 13 12 12 11 11 11 11 12 11 11 10 10 10 10 10 10 10 10 10 10 10 10 10 10 10 9 9 8 8 8 8 7 5 4 4 4 4 5 4 3 4 4 2 2 3 3 3 3 4 5 5 6 7 8 9 9 8 8 7 5 5 5 5 6 6 7 8 9 10 11 11 12 13 14 14 15 16 16 17
12 13 14 14 13 12 12 13 13 13 13 13 12 12 11 11 12 12 11 11 10 10 10 10 10 10 10 11 11 11 11 10 9 9 8 6 5 5 5 5 4 2 3 3 4 4 5 5 5 4 3 3 3 3 3 3 4 4 5 5 6 7 7 7 7 6 6 5 5 5 5 6 6 6 7 8 8 9 10 11 12 13 14 16 17 18 19
7 8 10 11 11 11 11 12 13 13 13 12 12 12 12 12 12 12 12 12 12 11 11 11 11 11 11 10 11 12 11 11 10 9 8 6 4 3 3 3 2 2 2 3 4 6 6 6 5 4 4 4 5 5 4 4 3 4 5 6 7 7 8 7 7 8 7 7 7 6 6 6 6 7 8 8 9 10 11 12 13 13 14 16 17 18 18
3 4 6 7 8 9 9 10 11 11 10 9 9 10 11 11 11 11 12 12 12 12 12 11 11 11 10 10 10 10 10 10 9 8 7 5 4 3 2 1 1 1 1 1 3 5 4 3 3 5 6 7 6 6 6 5 4 4 4 5 7 8 9 9 9 9 8 8 7 6 6 7 8 9 9 11 12 13 14 14 15 15 15 17 18 18 17
1 1 3 4 5 5 6 6 7 8 8 8 7 8 9 10 9 9 10 11 11 12 12 11 10 10 10 10 9 9 9 8 7 6 6 5 4 4 3 2 0 1 2 2 2 2 1 1 3 6 8 9 9 9 8 7 6 4 4 4 6 6 7 7 7 8 8 7 6 5 6 7 8 9 10 12 13 14 16 17 17 17 16 17 18 18 17
3 2 3 2 2 3 4 5 5 5 6 6 6 7 9 9 9 8 9 9 10 10 10 9 9 9 10 10 10 10 10 9 8 7 6 5 4 4 3 2 2 2 2 2 2 2 3 4 4 6 9 10 10 10 10 10 9 8 7 7 7 7 7 7 8 8 9 8 7 7 7 8 10 11 12 13 14 15 16 17 17 16 14 14 14 15 15
5 3 2 1 3 4 6 6 6 6 6 5 5 6 8 9 8 8 8 9 10 9 8 7 7 8 9 10 11 12 11 11 10 9 8 7 6 5 4 4 3 3 3 4 5 5 6 7 6 7 9 11 12 11 11 12 12 12 11 11 11 10 10 10 10 10 11 10 10 9 9 10 12 13 14 14 14 14 14 14 14 13 12 12 12 12 12
4 2 1 2 4 6 7 7 6 6 6 6 5 6 7 8 7 8 8 9 9 9 9 9 9 9 10 10 10 11 11 11 10 9 9 8 7 7 6 5 5 5 5 6 6 7 8 8 8 8 10 13 14 13 13 14 14 14 15 15 14 14 13 13 12 13 13 13 12 12 12 13 14 14 13 13 12 12 12 12 11 11 11 12 12 12 12
3 2 1 2 4 5 6 6 6 6 6 7 7 7 8 9 9 10 10 11 10 11 11 12 12 12 12 12 11 10 10 10 9 8 7 7 6 6 6 5 5 6 6 7 7 8 9 10 10 10 11 13 14 14 14 15 15 16 17 17 17 16 16 15 15 15 14 14 14 15 15 16 15 13 12 11 11 11 11 11 11 11 11 12 12 12 13
4 3 3 2 3 5 5 5 5 6 6 7 7 7 8 9 10 10 10 11 12 12 12 13 14 14 13 13 12 11 10 10 9 8 7 6 5 5 5 5 5 5 6 7 8 8 9 11 12 13 13 14 14 15 15 15 16 17 17 18 18 19 18 18 17 16 16 16 16 17 18 17 15 12 11 11 11 12 12 12 12 12 12 12 12 13 13
Wind_Direction
230 226 219 194 177 196 199 191 200 200 186 175 181 202 199 159 171 228 228 182 193 223 223 220 223 211 205 209 208 211 213 211 207 204 203 207 210 212 213 215 217 218 220 224 227 230 232 232 233 234 235 236 236 236 237 235 234 234 234 235 235 236 234 229 222 214 205 205 214 223 226 226 219 212 209 205 205 224 244 234 220 216 218 230 239 244 250
239 233 231 205 185 212 225 213 212 204 191 185 192 210 200 179 208 231 196 186 208 221 214 216 223 215 206 203 201 202 206 205 202 199 200 205 210 212 214 216 218 221 225 229 232 234 235 236 238 239 239 239 238 239 239 238 237 236 237 238 237 233 225 215 212 213 208 205 210 215 220 221 217 213 209 206 210 230 246 230 216 217 222 229 235 241 248
248 235 231 221 199 210 229 235 234 219 201 195 203 217 193 181 240 254 175 187 226 242 224 218 221 201 184 182 191 198 203 203 198 197 201 205 208 210 213 216 219 224 228 230 233 235 238 241 244 244 245 245 243 243 242 242 241 240 239 236 229 220 215 217 222 219 212 209 211 213 215 216 215 212 208 207 216 236 245 229 220 222 227 231 235 241 247
257 234 220 224 210 204 232 247 245 228 206 199 206 206 181 179 209 214 159 186 236 247 228 197 175 167 172 188 195 196 201 200 196 200 205 206 206 208 211 215 218 222 224 227 230 235 241 245 247 249 250 248 246 247 248 247 245 242 236 228 222 222 225 228 226 217 212 215 214 212 215 218 216 211 207 210 222 234 230 222 224 228 231 234 237 242 246
265 247 208 201 181 185 243 250 235 221 208 207 217 214 201 191 173 167 187 216 233 226 176 173 191 181 184 205 205 200 198 198 199 204 206 205 205 208 212 214 214 216 219 224 229 235 242 246 249 253 253 252 253 254 253 250 245 238 230 225 227 229 228 226 224 218 216 217 211 207 215 222 219 212 211 215 226 237 230 223 227 232 235 238 241 243 247
266 268 195 142 150 205 239 240 213 206 201 204 213 214 207 202 180 186 229 241 241 187 164 185 201 199 202 211 211 208 202 197 197 201 204 205 208 210 212 213 213 215 218 223 228 234 241 245 249 251 252 255 258 256 252 248 243 235 228 226 230 230 227 225 223 220 217 215 211 207 211 216 214 213 216 220 229 242 240 230 230 234 239 242 244 246 250
268 300 94 141 216 229 243 263 201 199 197 192 190 185 199 214 220 241 261 259 242 218 205 204 199 198 210 215 210 207 206 202 197 196 201 206 208 210 211 213 213 212 213 219 227 234 242 249 254 256 258 259 258 254 250 246 240 232 227 227 229 230 229 227 223 223 222 219 217 212 208 207 208 211 217 222 231 243 242 233 232 238 243 247 250 252 256
256 320 134 200 239 249 256 304 51 106 149 145 135 114 262 238 215 209 232 254 248 234 238 230 195 176 169 163 187 200 205 203 199 198 200 205 209 211 212 210 206 206 212 222 232 241 250 257 263 266 266 264 260 255 249 243 237 231 228 229 230 230 232 231 227 228 229 226 223 218 211 206 205 208 216 225 235 243 242 237 237 243 247 250 253 256 260
171 175 235 246 290 314 265 309 33 91 109 133 139 150 218 230 211 189 212 264 263 224 213 184 155 143 126 111 161 196 193 193 196 199 202 207 212 211 206 204 204 209 218 224 227 233 245 263 276 279 271 263 256 252 248 242 237 233 230 230 232 235 240 241 235 231 233 230 223 217 213 208 205 209 218 229 236 239 241 240 242 246 250 253 257 261 264
118 115 284 297 35 212 223 248 245 148 126 171 160 139 170 231 318 207 199 234 234 193 155 150 144 130 112 118 229 208 193 195 196 199 202 204 204 197 192 195 196 192 188 172 148 135 109 42 334 319 300 280 263 251 247 243 238 235 234 236 240 245 249 245 235 229 230 226 214 211 212 209 207 212 221 228 232 236 242 245 245 248 252 257 262 265 268
75 129 163 204 194 205 233 255 261 309 329 203 152 118 157 250 338 358 179 203 197 132 121 146 140 123 140 204 231 87 146 173 175 175 175 169 163 157 154 155 146 137 137 130 123 125 111 52 351 333 314 299 286 271 259 251 245 243 243 246 250 252 248 240 232 229 228 218 208 208 209 208 210 216 223 228 233 240 248 250 250 251 255 261 267 270 272
297 144 181 218 206 228 273 281 298 315 318 146 119 119 193 269 338 26 119 184 155 128 125 124 97 95 162 174 117 102 123 136 135 138 140 138 138 133 128 131 133 132 139 145 149 165 181 315 340 333 320 309 301 290 275 262 257 256 257 257 256 251 243 235 231 232 227 213 206 207 208 207 210 215 220 229 238 247 255 255 251 252 256 264 272 278 280
324 315 216 245 255 254 287 309 310 316 337 89 127 179 232 297 350 84 98 110 126 120 116 106 84 87 110 111 106 107 113 116 117 123 129 129 132 134 132 133 135 136 152 179 197 213 227 251 300 321 316 309 307 297 283 274 272 270 266 259 253 247 241 235 231 231 227 213 206 207 207 207 209 215 224 238 251 257 258 252 248 255 265 272 281 287 290
356 317 236 267 253 253 342 327 317 327 54 150 206 207 263 319 64 97 93 91 101 103 101 99 98 97 94 97 101 103 104 106 106 112 123 128 132 137 132 126 127 128 142 188 217 232 245 268 292 305 304 302 309 304 292 288 284 276 266 258 252 246 240 233 229 228 227 219 210 208 211 213 215 221 231 244 258 260 255 252 258 271 279 284 288 290 290
57 309 296 244 191 297 339 333 325 9 95 174 164 121 86 82 95 93 89 89 94 97 98 97 97 95 91 90 93 95 95 95 93 96 105 108 108 110 105 101 105 97 67 12 317 296 295 298 295 298 304 301 306 305 296 290 284 275 267 259 253 246 238 233 228 223 223 222 215 212 216 219 222 226 232 245 258 258 255 262 272 276 280 284 286 286 286
103 252 279 223 206 297 338 347 1 35 65 136 133 117 104 98 93 91 89 88 88 90 91 89 87 87 85 84 86 87 87 87 86 86 86 82 82 83 79 76 77 63 26 1 356 343 322 304 285 281 288 288 291 297 294 288 281 274 266 256 249 242 236 233 229 221 217 218 216 215 219 222 223 226 234 247 256 256 259 269 272 274 278 281 283 284 286
152 190 239 258 248 341 8 19 33 48 73 101 110 107 102 95 91 92 91 89 89 90 89 86 84 83 81 81 82 81 81 82 82 80 78 76 75 71 62 54 43 26 9 359 357 347 323 311 301 292 287 285 288 291 290 284 275 268 262 251 242 236 232 230 226 221 217 215 215 218 221 221 221 227 238 249 253 255 265 268 268 271 274 276 280 284 285
150 160 263 292 326 41 46 48 58 73 85 89 89 91 91 88 90 93 91 89 89 89 89 89 87 87 87 86 84 82 83 84 84 84 85 82 80 74 63 46 23 7 358 343 333 328 323 317 310 302 292 284 286 286 282 276 267 261 255 245 236 231 226 220 218 218 218 215 216 219 220 220 223 232 241 247 251 256 261 261 262 267 270 274 279 281 281
141 146 284 306 327 43 68 76 82 88 92 92 89 90 90 91 93 93 91 91 90 87 87 89 90 92 93 90 89 88 88 89 92 93 91 90 89 81 61 39 18 341 314 307 310 318 320 314 310 302 288 281 285 284 276 271 264 256 245 234 228 219 207 202 206 210 209 207 211 218 221 223 230 239 242 243 251 255 255 257 262 266 270 274 277 277 278
143 151 170 247 303 53 82 90 89 90 96 98 95 95 96 96 95 94 93 93 90 87 88 90 94 96 93 90 89 88 86 86 87 82 79 82 85 76 60 40 13 348 330 326 328 325 316 310 307 299 288 283 283 278 271 264 255 242 229 219 212 202 196 197 204 205 203 204 209 217 225 230 235 238 239 244 251 253 254 259 265 269 273 276 276 277 280
63 123 150 182 187 62 77 91 90 87 95 99 98 96 94 92 92 93 91 88 86 87 88 91 95 96 93 89 87 84 84 86 83 76 75 78 79 74 66 47 11 345 331 332 335 327 314 307 302 295 288 280 269 261 255 242 221 210 210 207 201 198 201 204 204 201 201 206 212 218 226 235 242 245 248 253 256 257 259 263 267 270 273 275 276 279 280
167 135 161 178 147 89 85 100 97 96 99 100 98 94 90 88 88 89 89 87 85 84 83 84 88 91 93 92 88 84 85 87 85 84 84 85 86 85 76 57 19 348 338 338 332 316 303 297 292 285 276 259 245 238 232 219 202 191 191 193 191 191 194 193 188 189 197 207 213 215 222 239 255 263 267 266 263 261 263 264 266 269 271 273 275 277 277
215 55 116 140 106 87 79 86 96 100 99 98 98 94 91 93 92 90 89 86 81 77 75 76 79 86 93 97 97 94 92 88 87 90 88 84 82 77 70 56 24 356 346 334 319 307 298 291 284 277 261 237 221 214 205 199 194 188 187 186 181 177 177 173 165 159 153 157 182 211 226 235 242 251 261 266 264 260 262 265 267 268 270 271 273 275 278
24 65 94 98 88 83 81 84 91 92 88 90 92 88 86 88 88 86 85 81 78 77 76 73 73 77 85 94 99 100 97 85 74 77 78 69 61 56 53 49 24 351 334 319 309 301 294 287 276 262 243 222 206 196 189 185 183 181 178 175 171 167 161 151 147 163 181 189 207 227 240 245 247 252 260 264 262 260 264 267 268 267 268 270 273 278 283
76 78 92 95 90 86 87 89 88 85 84 85 82 78 78 80 80 82 82 79 77 77 76 73 71 71 72 75 74 72 68 57 48 53 61 48 22 4 353 347 337 311 295 300 295 289 286 276 256 238 226 211 199 191 185 181 181 181 179 180 183 187 184 180 193 220 225 222 230 241 249 253 254 255 258 259 259 263 265 266 265 265 266 270 274 280 284
97 83 81 86 85 82 83 83 77 74 78 80 76 72 71 71 75 79 78 76 75 74 72 69 66 64 65 65 60 55 53 50 42 30 16 345 312 304 309 313 314 313 306 298 294 292 277 248 228 220 212 202 195 189 184 183 188 194 197 201 212 220 210 204 217 240 246 243 243 245 247 250 251 251 253 255 258 262 261 259 262 264 265 270 273 276 280
103 89 66 69 69 66 71 76 70 65 69 71 71 72 69 68 74 77 74 73 71 68 66 62 58 60 64 63 60 60 60 58 52 43 32 9 331 311 303 297 295 299 297 288 286 280 255 226 215 210 204 197 191 185 183 188 198 206 211 216 220 215 207 211 235 255 251 242 240 239 242 245 247 248 251 254 257 259 257 259 262 261 264 268 271 273 279
68 65 58 70 78 79 82 86 87 85 85 83 85 88 85 79 77 70 65 63 59 56 57 51 44 45 47 45 46 52 54 54 54 48 38 23 356 327 308 303 304 297 284 277 275 262 234 217 211 206 199 193 189 188 193 203 211 219 235 245 229 216 221 241 262 258 237 231 233 235 238 241 243 246 249 251 254 257 261 263 262 260 262 265 268 272 279
87 92 99 105 108 106 101 96 94 93 92 91 90 85 75 67 65 60 55 50 43 40 40 35 27 26 26 21 20 22 23 24 26 26 24 19 6 342 317 312 314 308 290 271 260 246 226 214 207 200 195 193 193 196 204 214 222 235 252 259 251 243 245 252 248 229 222 228 234 238 242 242 242 245 248 253 258 262 263 262 259 258 259 262 266 273 278
98 103 108 113 114 111 103 94 88 84 79 77 78 73 59 54 58 56 50 41 34 32 30 22 15 14 11 7 6 7 2 356 354 351 349 353 354 346 335 323 315 314 307 286 265 242 221 211 205 201 200 200 201 205 213 222 233 248 258 259 253 245 238 230 220 217 226 238 243 245 245 245 248 252 255 259 262 260 258 258 256 256 258 261 265 271 275
97 95 97 102 102 97 92 88 88 86 80 74 73 68 56 48 48 46 38 29 24 21 15 7 2 0 358 356 355 351 343 336 333 328 323 325 331 335 337 333 322 317 316 299 272 242 221 213 209 206 205 207 212 222 234 240 244 253 258 249 231 212 203 205 214 227 242 249 248 246 243 243 248 253 255 258 258 255 254 255 256 257 260 260 260 262 261
113 107 103 102 98 93 93 92 89 85 79 67 59 54 46 39 38 35 28 20 15 7 359 355 353 351 348 345 341 334 328 323 320 316 312 311 311 316 323 325 320 309 294 280 266 246 231 222 215 211 212 220 230 242 254 258 258 258 248 225 205 197 202 216 231 243 254 257 252 244 240 241 247 253 257 259 259 257 256 256 256 259 260 257 255 258 251
117 106 99 96 91 88 88 83 77 74 70 61 56 51 42 35 31 24 16 10 2 354 350 350 348 344 340 336 332 329 326 320 314 311 308 305 302 303 305 304 302 297 286 274 267 256 244 236 232 229 231 236 244 252 256 253 247 237 220 208 207 214 224 236 246 252 256 256 248 241 241 248 259 265 266 263 260 257 257 257 256 258 260 259 261 261 243
98 93 91 88 83 81 81 80 77 77 71 63 56 46 34 26 17 7 360 354 347 342 342 342 339 336 334 331 329 328 328 325 320 315 311 306 301 299 294 289 286 284 279 273 271 269 264 259 256 253 249 249 253 251 239 226 220 215 210 212 223 232 235 242 249 250 249 247 244 247 255 263 267 266 261 256 252 249 249 249 248 250 259 269 272 258 233
88 89 88 84 76 74 78 81 81 78 71 64 55 41 29 21 10 4 3 358 352 350 348 344 342 340 337 335 332 328 328 331 330 325 319 315 310 304 297 292 288 283 278 273 268 266 266 264 261 257 253 248 239 224 213 213 221 225 225 226 228 227 226 233 239 240 243 246 250 256 259 259 258 252 244 240 239 238 236 237 240 247 259 270 269 243 218
80 80 79 78 77 77 80 81 79 73 64 58 52 43 36 30 25 22 18 10 5 2 357 354 354 354 354 354 352 348 346 345 342 337 332 324 316 306 296 292 291 288 282 273 261 255 255 255 252 244 232 220 212 209 212 221 227 229 231 230 219 211 215 225 230 238 246 248 250 253 251 247 241 233 227 223 222 223 226 233 239 244 252 255 250 225 196
69 67 68 71 73 76 77 76 69 58 50 46 42 36 31 29 26 23 18 13 12 10 7 8 12 14 13 11 7 4 4 4 0 358 353 337 322 308 298 303 307 300 291 283 273 264 252 230 213 210 207 204 205 214 224 225 223 226 230 220 204 205 216 221 225 236 241 241 241 241 236 227 214 205 200 198 198 202 209 216 220 226 240 245 245 236 215
67 64 65 68 70 70 68 62 51 41 38 39 36 30 24 21 19 17 14 13 12 13 15 20 24 25 23 21 17 15 16 16 14 13 11 6 5 10 16 10 350 323 306 301 294 275 248 220 209 208 206 203 208 218 222 221 220 222 215 204 204 213 219 219 223 224 219 214 209 200 187 178 177 178 179 183 187 190 192 195 200 221 242 250 256 250 234
66 65 65 66 67 66 61 53 45 39 36 34 31 26 23 21 19 17 17 15 15 16 20 24 26 25 23 22 23 25 26 25 24 24 23 19 18 21 20 13 354 326 309 302 278 243 227 220 218 216 206 201 207 208 205 204 208 208 208 213 220 220 210 200 193 186 179 172 165 159 153 151 155 159 163 169 174 174 176 179 187 224 243 250 254 245 232
60 59 57 58 60 60 57 52 46 40 35 31 28 26 26 25 22 21 21 21 20 20 20 21 22 22 20 18 20 24 26 24 24 25 26 25 25 22 14 3 351 326 292 266 238 217 208 204 196 178 170 181 195 199 198 214 230 236 235 228 215 194 179 170 163 157 151 148 147 146 142 139 138 137 139 149 156 172 221 252 268 270 265 262 258 248 239
51 49 49 51 51 51 51 50 47 44 42 41 38 35 33 30 26 24 24 24 24 23 21 20 21 20 17 14 13 16 18 16 15 16 20 26 32 33 27 19 19 18 339 210 189 176 168 157 144 138 143 161 204 246 260 261 253 241 227 208 187 174 169 164 158 151 145 144 145 146 147 152 160 174 196 216 241 258 266 272 277 277 273 269 264 259 256
47 45 44 44 44 44 44 46 47 48 48 47 45 42 36 32 28 25 24 25 26 26 25 24 22 20 15 9 7 10 13 15 15 17 22 29 37 39 35 32 44 66 91 128 145 148 147 139 128 126 138 198 236 244 248 242 220 202 191 184 179 176 173 170 168 166 165 168 173 184 200 220 236 247 253 256 260 262 265 271 276 279 278 275 271 267 265
45 42 41 41 42 42 43 43 44 46 46 45 42 39 35 33 33 32 30 29 30 28 27 25 23 19 13 8 7 9 12 15 18 24 28 31 37 42 39 35 46 80 104 123 138 142 145 142 135 135 153 196 212 217 218 204 183 178 180 185 188 186 185 186 189 190 194 203 216 229 244 256 261 265 268 270 271 273 276 278 279 279 278 276 274 271 268
45 42 42 44 45 46 48 48 46 45 44 42 40 38 37 36 37 36 36 35 33 29 27 25 23 20 17 13 12 13 14 13 10 10 13 18 28 43 45 36 30 60 111 136 151 151 149 149 149 152 173 191 189 189 189 176 169 181 197 207 211 211 209 210 215 220 227 241 256 265 266 264 262 265 270 273 275 280 285 288 289 288 285 281 278 274 271
43 42 44 49 52 53 53 49 45 42 39 37 37 39 39 39 39 39 38 36 33 29 26 21 19 18 18 15 14 14 15 14 8 1 359 2 9 22 39 41 25 27 74 138 156 154 147 144 151 171 196 201 194 192 190 181 179 199 215 222 226 231 233 236 242 247 254 268 280 283 277 274 276 278 277 275 274 277 281 285 289 292 292 289 283 278 275
44 45 48 50 49 49 49 46 44 42 37 33 35 38 38 40 41 40 37 33 30 26 21 16 13 14 14 13 11 9 8 7 5 360 356 356 356 352 353 23 60 54 60 160 172 165 157 155 170 193 208 211 203 198 205 210 207 207 219 228 231 236 240 245 250 257 264 271 276 277 279 285 290 291 289 287 284 282 283 285 288 289 289 288 284 278 273
49 83 67 48 35 33 32 29 30 33 31 29 29 30 30 31 32 29 26 25 22 20 18 17 16 16 14 10 6 2 358 357 357 355 352 354 355 346 330 314 240 157 161 173 179 184 215 255 220 207 214 219 212 205 211 222 223 223 234 240 234 231 235 241 248 255 259 259 262 272 285 294 298 298 297 297 297 295 293 292 292 291 289 286 281 276 271
62 111 101 60 10 356 351 344 346 0 10 12 15 18 18 17 15 13 12 11 11 12 15 19 22 23 21 16 9 2 355 351 350 348 344 343 344 343 333 307 267 227 201 204 220 248 277 281 256 224 220 226 225 218 219 227 232 237 244 247 240 234 233 236 243 251 254 255 261 271 282 291 299 300 300 301 302 299 296 293 293 292 290 284 278 274 271
58 94 117 10 341 345 341 331 326 331 338 343 353 1 4 6 10 11 6 3 5 8 9 9 11 14 15 15 13 7 359 351 345 342 338 333 328 329 329 314 288 269 253 250 256 264 273 277 265 236 224 228 233 233 234 239 245 248 251 251 248 244 243 248 254 257 257 257 263 272 281 289 295 297 298 301 301 297 294 294 293 291 284 277 271 268 268
41 46 36 12 7 0 350 338 331 330 330 333 343 348 344 344 349 353 349 347 351 355 354 351 352 354 355 356 359 1 0 357 352 345 340 335 327 322 320 314 301 289 279 271 267 265 262 261 255 238 228 232 238 241 243 247 251 253 255 255 253 250 250 254 259 260 259 263 271 279 284 287 288 289 293 298 299 298 297 298 297 293 287 279 271 266 266
350 323 337 25 18 3 348 340 339 336 329 329 335 340 337 332 334 340 345 344 341 338 337 337 338 339 340 340 338 338 343 348 349 347 343 339 333 325 319 312 303 297 292 285 280 273 263 253 246 238 234 236 240 244 248 252 255 256 256 255 254 253 255 259 262 263 264 269 275 280 282 281 280 281 287 294 297 299 301 300 297 295 293 288 280 275 273
344 303 263 273 334 344 337 332 336 338 333 328 330 333 333 331 331 335 343 346 344 340 338 335 332 329 328 327 323 318 317 318 321 322 323 323 324 325 325 319 311 304 297 290 286 280 270 258 251 247 246 247 249 250 252 254 256 258 258 256 255 255 257 260 263 266 269 272 276 278 279 277 272 272 280 290 294 297 300 299 295 292 290 288 286 283 278